sat.trackr.live / text

‹ back to catalog

STARLINK-1301

NORAD 45361 · 2020-019B

PAYLOAD ACTIVE UNKNOWN

§ Identity

Operator
Country
US
Launch date
2020-03-18
Launch site
AFETR
Launch vehicle
Mass (kg)
RCS (m²)

Purposes: comms

External: N2YO · Heavens-Above · Gunter

§ Orbital elements

Epoch: 2026-08-28T12:05:27.663360Z

Period
88.64 min
Inclination
53.0187°
Eccentricity
0.0006535
Mean motion
16.24476463 rev/d
Perigee alt
203.1 km
Apogee alt
211.7 km
Semi-major
6,585.6 km
B*
5.7918e-4
RAAN
319.8489°
Arg perigee
353.2264°
Mean anomaly
6.8686°
Rev number
35,779

§ Raw data

STARLINK-13011 45361U 20019B   26240.50379240  .01658200  11951-4  57918-3 0  99912 45361  53.0187 319.8489 0006535 353.2264   6.8686 16.24476463357799

JSON: /api/v1/satellites/45361 · /tle

For live sub-satellite position, see the globe view (requires WebGL).

§ Visibility from observer

Set your observer location to see the next 7 days of passes ≥ 10°. The values pass through the URL so the page stays shareable.

No JS? Fill the form by hand. The geolocation button needs JavaScript.